AAL773 KPHL-KATL

Flight info

Callsign AAL773
Flight time 1h 36m
Altitude 38000
Route STOEN REEFI EMI J48 MOL FLASK OZZZI2
Aircraft B77W/H-SDE1E2E3FGHIJ2J3J4J5M1RWXY/LB1D1

Departure

Time 2026-05-04 22:56
Airport Philadelphia International Airport (KPHL)

Arrival

Time 2026-05-05 00:32
Airport Hartsfield Jackson Atlanta International Airport (KATL)
Time Latitude Longitude Altitude Speed Heading
2026-05-04 22:24 39.87414 -75.25241 30 ft 0 kts 85°
2026-05-04 22:39 39.87414 -75.25253 30 ft 3 kts 85°
2026-05-04 22:39 39.87412 -75.25277 30 ft 3 kts 85°
2026-05-04 22:39 39.87412 -75.25302 30 ft 3 kts 112°
2026-05-04 22:39 39.87422 -75.25323 27 ft 0 kts 146°
2026-05-04 22:45 39.87416 -75.25320 28 ft 3 kts 157°
2026-05-04 22:46 39.87392 -75.25324 29 ft 4 kts 199°
2026-05-04 22:46 39.87364 -75.25337 30 ft 4 kts 200°
2026-05-04 22:46 39.87334 -75.25351 29 ft 5 kts 200°
2026-05-04 22:46 39.87301 -75.25366 30 ft 5 kts 200°
2026-05-04 22:47 39.87258 -75.25379 30 ft 7 kts 187°
2026-05-04 22:47 39.87209 -75.25379 30 ft 7 kts 175°
2026-05-04 22:47 39.87161 -75.25365 30 ft 7 kts 162°
2026-05-04 22:47 39.87123 -75.25325 30 ft 8 kts 120°
2026-05-04 22:48 39.87102 -75.25252 30 ft 8 kts 122°
2026-05-04 22:48 39.87074 -75.25189 30 ft 8 kts 107°
2026-05-04 22:48 39.87074 -75.25117 30 ft 8 kts 80°
2026-05-04 22:48 39.87087 -75.25044 30 ft 8 kts 76°
2026-05-04 22:49 39.87102 -75.24969 30 ft 9 kts 75°
2026-05-04 22:49 39.87118 -75.24887 30 ft 10 kts 76°
2026-05-04 22:49 39.87136 -75.24797 30 ft 11 kts 76°
2026-05-04 22:49 39.87154 -75.24702 30 ft 11 kts 75°
2026-05-04 22:50 39.87175 -75.24600 30 ft 12 kts 75°
2026-05-04 22:50 39.87197 -75.24494 30 ft 12 kts 75°
2026-05-04 22:50 39.87219 -75.24385 30 ft 12 kts 75°
2026-05-04 22:50 39.87240 -75.24277 30 ft 11 kts 76°
2026-05-04 22:51 39.87251 -75.24203 30 ft 7 kts 91°
2026-05-04 22:51 39.87212 -75.24141 30 ft 13 kts 147°
2026-05-04 22:51 39.87129 -75.24094 30 ft 13 kts 163°
2026-05-04 22:51 39.87042 -75.24062 30 ft 12 kts 165°
2026-05-04 22:52 39.86973 -75.24038 30 ft 10 kts 165°
2026-05-04 22:52 39.86918 -75.23987 30 ft 10 kts 115°
2026-05-04 22:52 39.86920 -75.23894 30 ft 11 kts 77°
2026-05-04 22:52 39.86937 -75.23801 30 ft 11 kts 76°
2026-05-04 22:53 39.86955 -75.23708 30 ft 10 kts 76°
2026-05-04 22:53 39.86973 -75.23619 30 ft 10 kts 75°
2026-05-04 22:53 39.86991 -75.23529 30 ft 11 kts 76°
2026-05-04 22:53 39.86997 -75.23452 30 ft 5 kts 106°
2026-05-04 22:54 39.86996 -75.23449 30 ft 0 kts 109°
2026-05-04 22:54 39.86995 -75.23447 30 ft 1 kts 113°
2026-05-04 22:54 39.86943 -75.23410 30 ft 11 kts 166°
2026-05-04 22:55 39.86888 -75.23457 30 ft 11 kts 253°
2026-05-04 22:55 39.86859 -75.23613 30 ft 38 kts 256°
2026-05-04 22:55 39.86714 -75.24335 30 ft 124 kts 256°
2026-05-04 22:55 39.86431 -75.25689 245 ft 169 kts 250°
2026-05-04 22:56 39.86083 -75.27151 1141 ft 166 kts 247°
2026-05-04 22:56 39.85519 -75.28385 2100 ft 164 kts 231°
2026-05-04 22:56 39.84789 -75.29607 2721 ft 179 kts 232°
2026-05-04 22:56 39.83990 -75.30977 3169 ft 203 kts 233°
2026-05-04 22:57 39.83076 -75.32578 3488 ft 237 kts 233°
2026-05-04 22:57 39.82071 -75.34332 4288 ft 243 kts 233°
2026-05-04 22:57 39.81050 -75.36100 4869 ft 249 kts 233°
2026-05-04 22:57 39.79987 -75.37923 4998 ft 255 kts 233°
2026-05-04 22:58 39.78907 -75.39760 4997 ft 254 kts 233°
2026-05-04 22:58 39.77847 -75.41554 5000 ft 252 kts 233°
2026-05-04 22:58 39.76773 -75.43359 5000 ft 250 kts 233°
2026-05-04 22:58 39.75704 -75.45134 5002 ft 251 kts 233°
2026-05-04 22:59 39.74623 -75.46927 5002 ft 250 kts 233°
2026-05-04 22:59 39.73559 -75.48688 4999 ft 250 kts 233°
2026-05-04 22:59 39.72490 -75.50456 4993 ft 250 kts 233°
2026-05-04 22:59 39.71407 -75.52236 5000 ft 249 kts 233°
2026-05-04 23:00 39.70325 -75.54020 4995 ft 250 kts 233°
2026-05-04 23:00 39.69260 -75.55775 5002 ft 250 kts 233°
2026-05-04 23:00 39.68171 -75.57566 4995 ft 251 kts 233°
2026-05-04 23:00 39.67091 -75.59344 5001 ft 251 kts 233°
2026-05-04 23:01 39.66014 -75.61124 5004 ft 252 kts 233°
2026-05-04 23:01 39.64932 -75.62921 5003 ft 252 kts 233°
2026-05-04 23:01 39.63843 -75.64722 5005 ft 253 kts 233°
2026-05-04 23:01 39.62767 -75.66498 5002 ft 252 kts 234°
2026-05-04 23:02 39.62024 -75.68492 5191 ft 247 kts 265°
2026-05-04 23:02 39.62381 -75.70669 6119 ft 252 kts 295°
2026-05-04 23:02 39.63423 -75.72489 7125 ft 257 kts 311°
2026-05-04 23:02 39.64873 -75.73915 8065 ft 266 kts 331°
2026-05-04 23:03 39.66650 -75.74669 8945 ft 275 kts 341°
2026-05-04 23:03 39.68527 -75.75213 9739 ft 279 kts 343°
2026-05-04 23:03 39.70431 -75.75741 10016 ft 282 kts 342°
2026-05-04 23:03 39.72346 -75.76292 10002 ft 285 kts 342°
2026-05-04 23:04 39.74280 -75.76877 9997 ft 283 kts 342°
2026-05-04 23:04 39.76193 -75.77473 9996 ft 280 kts 341°
2026-05-04 23:04 39.78069 -75.78069 9993 ft 281 kts 341°
2026-05-04 23:04 39.79971 -75.78677 10008 ft 280 kts 338°
2026-05-04 23:05 39.81694 -75.79845 10150 ft 289 kts 314°
2026-05-04 23:05 39.82903 -75.82033 10380 ft 311 kts 290°
2026-05-04 23:05 39.83299 -75.84811 11047 ft 320 kts 268°
2026-05-04 23:05 39.83025 -75.87702 11808 ft 330 kts 262°
2026-05-04 23:06 39.82648 -75.90709 12908 ft 336 kts 262°
2026-05-04 23:06 39.82271 -75.93721 14046 ft 341 kts 262°
2026-05-04 23:06 39.81896 -75.96776 15043 ft 347 kts 262°
2026-05-04 23:06 39.81519 -75.99926 16071 ft 353 kts 262°
2026-05-04 23:07 39.81143 -76.03114 17104 ft 359 kts 263°
2026-05-04 23:07 39.80770 -76.06324 18117 ft 365 kts 263°
2026-05-04 23:07 39.80387 -76.09629 19019 ft 370 kts 263°
2026-05-04 23:07 39.80002 -76.12940 19919 ft 375 kts 263°
2026-05-04 23:08 39.79506 -76.16314 20836 ft 381 kts 258°
2026-05-04 23:08 39.78720 -76.19650 21714 ft 388 kts 253°
2026-05-04 23:08 39.77684 -76.22901 22547 ft 396 kts 248°
2026-05-04 23:08 39.76475 -76.26167 23371 ft 403 kts 248°
2026-05-04 23:09 39.75235 -76.29467 24061 ft 409 kts 248°
2026-05-04 23:09 39.73982 -76.32792 24758 ft 414 kts 248°
2026-05-04 23:09 39.72707 -76.36182 25436 ft 419 kts 248°
2026-05-04 23:09 39.71437 -76.39571 26097 ft 423 kts 248°
2026-05-04 23:10 39.70133 -76.43056 26743 ft 429 kts 247°
2026-05-04 23:10 39.68832 -76.46540 27381 ft 433 kts 247°
2026-05-04 23:10 39.67500 -76.50106 27975 ft 439 kts 247°
2026-05-04 23:10 39.66159 -76.53695 28611 ft 443 kts 247°
2026-05-04 23:11 39.64816 -76.57282 29235 ft 447 kts 247°
2026-05-04 23:11 39.63458 -76.60905 29803 ft 452 kts 247°
2026-05-04 23:11 39.62073 -76.64596 30273 ft 456 kts 246°
2026-05-04 23:11 39.60674 -76.68321 30726 ft 459 kts 246°
2026-05-04 23:12 39.59260 -76.72079 31169 ft 462 kts 246°
2026-05-04 23:12 39.57860 -76.75796 31664 ft 463 kts 246°
2026-05-04 23:12 39.56439 -76.79563 32260 ft 462 kts 246°
2026-05-04 23:12 39.55041 -76.83263 32884 ft 460 kts 246°
2026-05-04 23:13 39.53629 -76.87001 33471 ft 458 kts 246°
2026-05-04 23:13 39.52222 -76.90720 34023 ft 457 kts 246°
2026-05-04 23:13 39.50737 -76.94314 34463 ft 458 kts 240°
2026-05-04 23:13 39.48867 -76.97672 35007 ft 458 kts 233°
2026-05-04 23:14 39.46732 -77.00758 35489 ft 459 kts 228°
2026-05-04 23:14 39.44374 -77.03475 35945 ft 460 kts 223°
2026-05-04 23:14 39.41879 -77.06083 36383 ft 460 kts 222°
2026-05-04 23:14 39.39381 -77.08658 36831 ft 458 kts 222°
2026-05-04 23:15 39.36889 -77.11225 37286 ft 457 kts 222°
2026-05-04 23:15 39.34402 -77.13797 37710 ft 456 kts 222°
2026-05-04 23:15 39.31926 -77.16373 37962 ft 457 kts 223°
2026-05-04 23:15 39.29475 -77.18933 37908 ft 459 kts 223°
2026-05-04 23:16 39.24507 -77.24130 37909 ft 455 kts 223°
2026-05-04 23:16 39.19617 -77.29241 37923 ft 455 kts 223°
2026-05-04 23:17 39.14685 -77.34386 37915 ft 455 kts 222°
2026-05-04 23:17 39.09774 -77.39500 37876 ft 455 kts 222°
2026-05-04 23:18 39.04858 -77.44607 37896 ft 455 kts 222°
2026-05-04 23:18 38.99911 -77.49736 37899 ft 456 kts 222°
2026-05-04 23:19 38.94970 -77.54851 37893 ft 456 kts 222°
2026-05-04 23:19 38.90054 -77.59931 37887 ft 456 kts 222°
2026-05-04 23:20 38.85101 -77.65039 37911 ft 455 kts 222°
2026-05-04 23:20 38.80165 -77.70120 37912 ft 455 kts 222°
2026-05-04 23:21 38.75213 -77.75210 37908 ft 454 kts 222°
2026-05-04 23:21 38.70305 -77.80246 37887 ft 454 kts 222°
2026-05-04 23:22 38.65435 -77.85355 37922 ft 452 kts 226°
2026-05-04 23:22 38.61243 -77.91307 37934 ft 447 kts 236°
2026-05-04 23:23 38.57548 -77.97675 37937 ft 448 kts 237°
2026-05-04 23:23 38.53823 -78.04081 37933 ft 449 kts 236°
2026-05-04 23:24 38.50066 -78.10485 37910 ft 450 kts 236°
2026-05-04 23:24 38.46325 -78.16830 37918 ft 451 kts 236°
2026-05-04 23:25 38.42538 -78.23237 37912 ft 452 kts 236°
2026-05-04 23:25 38.38760 -78.29614 37915 ft 451 kts 236°
2026-05-04 23:26 38.34970 -78.36000 37923 ft 451 kts 236°
2026-05-04 23:26 38.31181 -78.42372 37899 ft 450 kts 236°
2026-05-04 23:27 38.27404 -78.48714 37929 ft 449 kts 236°
2026-05-04 23:27 38.23652 -78.55001 37933 ft 447 kts 236°
2026-05-04 23:28 38.19990 -78.61126 37914 ft 447 kts 236°
2026-05-04 23:28 38.16224 -78.67412 37929 ft 447 kts 236°
2026-05-04 23:29 38.13063 -78.72680 37939 ft 446 kts 236°
2026-05-04 23:29 38.09309 -78.78926 37946 ft 446 kts 235°
2026-05-04 23:30 38.05549 -78.85167 37953 ft 447 kts 235°
2026-05-04 23:30 38.01758 -78.91448 37946 ft 448 kts 235°
2026-05-04 23:31 37.97966 -78.97721 37948 ft 447 kts 235°
2026-05-04 23:31 37.94196 -79.03948 37945 ft 448 kts 235°
2026-05-04 23:32 37.90375 -79.10232 37935 ft 448 kts 234°
2026-05-04 23:32 37.86601 -79.15669 37946 ft 449 kts 231°
2026-05-04 23:33 37.82369 -79.21504 37940 ft 448 kts 231°
2026-05-04 23:33 37.78174 -79.27293 37934 ft 448 kts 231°
2026-05-04 23:34 37.73955 -79.33132 37938 ft 448 kts 231°
2026-05-04 23:34 37.69777 -79.38916 37920 ft 447 kts 231°
2026-05-04 23:35 37.65580 -79.44717 37939 ft 446 kts 231°
2026-05-04 23:35 37.61415 -79.50462 37939 ft 445 kts 231°
2026-05-04 23:36 37.57227 -79.56229 37945 ft 444 kts 231°
2026-05-04 23:36 37.53043 -79.61979 37968 ft 443 kts 231°
2026-05-04 23:37 37.48892 -79.67676 37951 ft 444 kts 231°
2026-05-04 23:37 37.44700 -79.73417 37965 ft 444 kts 231°
2026-05-04 23:38 37.40544 -79.79097 37965 ft 444 kts 231°
2026-05-04 23:38 37.36373 -79.84789 37968 ft 444 kts 231°
2026-05-04 23:39 37.32201 -79.90474 37974 ft 443 kts 231°
2026-05-04 23:39 37.28020 -79.96160 37951 ft 443 kts 231°
2026-05-04 23:40 37.23823 -80.01857 37966 ft 443 kts 231°
2026-05-04 23:40 37.19651 -80.07511 37980 ft 442 kts 231°
2026-05-04 23:41 37.15480 -80.13154 37995 ft 442 kts 230°
2026-05-04 23:41 37.11303 -80.18796 37999 ft 442 kts 230°
2026-05-04 23:42 37.07110 -80.24452 37977 ft 442 kts 231°
2026-05-04 23:42 37.02942 -80.30061 37992 ft 442 kts 231°
2026-05-04 23:43 36.98710 -80.35634 37988 ft 443 kts 230°
2026-05-04 23:43 36.94389 -80.41134 37988 ft 443 kts 229°
2026-05-04 23:44 36.90076 -80.46612 37976 ft 443 kts 229°
2026-05-04 23:44 36.85753 -80.52118 37971 ft 443 kts 229°
2026-05-04 23:45 36.81445 -80.57606 37968 ft 443 kts 230°
2026-05-04 23:45 36.77154 -80.63066 38021 ft 442 kts 230°
2026-05-04 23:46 36.72831 -80.68558 38021 ft 443 kts 230°
2026-05-04 23:46 36.68523 -80.74019 38026 ft 442 kts 230°
2026-05-04 23:47 36.64184 -80.79510 38019 ft 442 kts 230°
2026-05-04 23:47 36.59877 -80.84952 38020 ft 442 kts 230°
2026-05-04 23:48 36.55558 -80.90401 37958 ft 442 kts 230°
2026-05-04 23:48 36.51243 -80.95834 37974 ft 442 kts 230°
2026-05-04 23:49 36.46931 -81.01255 37995 ft 441 kts 230°
2026-05-04 23:49 36.42620 -81.06667 38013 ft 441 kts 230°
2026-05-04 23:50 36.38311 -81.12066 38024 ft 441 kts 230°
2026-05-04 23:50 36.34004 -81.17454 38036 ft 440 kts 230°
2026-05-04 23:51 36.29673 -81.22867 38030 ft 440 kts 230°
2026-05-04 23:51 36.25374 -81.28233 38027 ft 441 kts 230°
2026-05-04 23:52 36.21042 -81.33632 38002 ft 440 kts 230°
2026-05-04 23:52 36.16740 -81.38988 37991 ft 439 kts 230°
2026-05-04 23:53 36.12446 -81.44324 37989 ft 438 kts 230°
2026-05-04 23:53 36.08152 -81.49651 37961 ft 438 kts 230°
2026-05-04 23:54 36.03829 -81.55009 37952 ft 438 kts 230°
2026-05-04 23:54 35.99527 -81.60331 37966 ft 438 kts 230°
2026-05-04 23:55 35.95209 -81.65659 37966 ft 439 kts 230°
2026-05-04 23:56 35.88743 -81.73626 37980 ft 438 kts 230°
2026-05-04 23:56 35.84434 -81.78928 38031 ft 438 kts 230°
2026-05-04 23:57 35.80099 -81.84251 38021 ft 438 kts 230°
2026-05-04 23:57 35.75795 -81.89524 38008 ft 438 kts 230°
2026-05-04 23:58 35.71445 -81.94782 37993 ft 438 kts 229°
2026-05-04 23:58 35.67069 -81.99972 38006 ft 438 kts 229°
2026-05-04 23:59 35.62671 -82.05189 38008 ft 437 kts 229°
2026-05-04 23:59 35.58311 -82.10369 38009 ft 437 kts 229°
2026-05-05 00:00 35.53952 -82.15544 38011 ft 438 kts 229°
2026-05-05 00:00 35.49555 -82.20755 37988 ft 438 kts 229°
2026-05-05 00:01 35.45185 -82.25924 38007 ft 437 kts 229°
2026-05-05 00:01 35.40836 -82.31106 38000 ft 437 kts 230°
2026-05-05 00:02 35.36560 -82.36435 37994 ft 437 kts 231°
2026-05-05 00:02 35.32300 -82.41765 37988 ft 438 kts 230°
2026-05-05 00:03 35.28040 -82.47058 38011 ft 439 kts 230°
2026-05-05 00:03 35.23759 -82.52356 38023 ft 439 kts 230°
2026-05-05 00:04 35.19479 -82.57642 37829 ft 432 kts 230°
2026-05-05 00:04 35.17384 -82.60228 37343 ft 429 kts 230°
2026-05-05 00:04 35.15282 -82.62812 36908 ft 423 kts 230°
2026-05-05 00:04 35.13182 -82.65328 36450 ft 419 kts 229°
2026-05-05 00:05 35.11119 -82.67767 36018 ft 415 kts 229°
2026-05-05 00:05 35.09051 -82.70206 35575 ft 411 kts 229°
2026-05-05 00:05 35.06999 -82.72629 35133 ft 407 kts 228°
2026-05-05 00:05 35.04996 -82.74999 34687 ft 403 kts 228°
2026-05-05 00:06 35.02985 -82.77381 34222 ft 400 kts 228°
2026-05-05 00:06 35.00990 -82.79747 33740 ft 397 kts 228°
2026-05-05 00:06 34.99006 -82.82098 33258 ft 394 kts 227°
2026-05-05 00:06 34.97062 -82.84397 32794 ft 391 kts 227°
2026-05-05 00:07 34.95107 -82.86709 32359 ft 388 kts 227°
2026-05-05 00:07 34.93193 -82.88965 31932 ft 385 kts 227°
2026-05-05 00:07 34.91257 -82.91217 31488 ft 382 kts 227°
2026-05-05 00:07 34.89323 -82.93454 31058 ft 380 kts 227°
2026-05-05 00:08 34.87427 -82.95643 30637 ft 378 kts 227°
2026-05-05 00:08 34.85518 -82.97849 30221 ft 376 kts 227°
2026-05-05 00:08 34.83643 -83.00016 29752 ft 374 kts 227°
2026-05-05 00:08 34.81757 -83.02197 29283 ft 371 kts 227°
2026-05-05 00:09 34.79879 -83.04367 28853 ft 368 kts 227°
2026-05-05 00:09 34.78037 -83.06496 28409 ft 365 kts 227°
2026-05-05 00:09 34.76214 -83.08599 28004 ft 363 kts 227°
2026-05-05 00:09 34.74380 -83.10713 27570 ft 360 kts 227°
2026-05-05 00:10 34.72558 -83.12810 27172 ft 358 kts 227°
2026-05-05 00:10 34.70767 -83.14872 26769 ft 356 kts 227°
2026-05-05 00:10 34.68964 -83.16947 26363 ft 355 kts 226°
2026-05-05 00:10 34.67174 -83.19005 25961 ft 353 kts 227°
2026-05-05 00:11 34.65413 -83.21029 25557 ft 352 kts 226°
2026-05-05 00:11 34.63640 -83.23066 25168 ft 350 kts 226°
2026-05-05 00:11 34.61868 -83.25102 24756 ft 349 kts 226°
2026-05-05 00:11 34.60104 -83.27127 24362 ft 348 kts 226°
2026-05-05 00:12 34.58357 -83.29131 23966 ft 347 kts 226°
2026-05-05 00:12 34.56590 -83.31156 23535 ft 347 kts 226°
2026-05-05 00:12 34.54849 -83.33152 23066 ft 347 kts 226°
2026-05-05 00:12 34.53087 -83.35176 22634 ft 345 kts 226°
2026-05-05 00:13 34.51359 -83.37164 22229 ft 343 kts 226°
2026-05-05 00:13 34.49640 -83.39140 21821 ft 341 kts 226°
2026-05-05 00:13 34.47910 -83.41129 21415 ft 339 kts 226°
2026-05-05 00:13 34.46215 -83.43076 21005 ft 338 kts 226°
2026-05-05 00:14 34.44505 -83.45037 20596 ft 337 kts 226°
2026-05-05 00:14 34.42803 -83.46991 20200 ft 336 kts 226°
2026-05-05 00:14 34.41126 -83.48913 19819 ft 335 kts 226°
2026-05-05 00:14 34.39421 -83.50868 19417 ft 335 kts 226°
2026-05-05 00:15 34.37746 -83.52786 19023 ft 334 kts 226°
2026-05-05 00:15 34.36054 -83.54723 18631 ft 334 kts 226°
2026-05-05 00:15 34.34362 -83.56659 18195 ft 334 kts 226°
2026-05-05 00:15 34.32669 -83.58595 17752 ft 333 kts 225°
2026-05-05 00:16 34.30983 -83.60521 17317 ft 333 kts 225°
2026-05-05 00:16 34.29869 -83.61792 17034 ft 332 kts 225°
2026-05-05 00:16 34.28181 -83.63697 16621 ft 331 kts 224°
2026-05-05 00:16 34.26459 -83.65546 16237 ft 330 kts 223°
2026-05-05 00:17 34.24729 -83.67372 15824 ft 329 kts 223°
2026-05-05 00:17 34.23014 -83.69180 15418 ft 329 kts 223°
2026-05-05 00:17 34.21289 -83.71004 15047 ft 328 kts 223°
2026-05-05 00:17 34.19572 -83.72824 14650 ft 328 kts 223°
2026-05-05 00:18 34.17878 -83.74622 14256 ft 326 kts 223°
2026-05-05 00:18 34.16169 -83.76436 13866 ft 325 kts 222°
2026-05-05 00:18 34.14474 -83.78236 13430 ft 323 kts 222°
2026-05-05 00:18 34.12805 -83.80009 13022 ft 321 kts 222°
2026-05-05 00:19 34.11127 -83.81789 12622 ft 319 kts 222°
2026-05-05 00:19 34.09471 -83.83543 12218 ft 311 kts 222°
2026-05-05 00:19 34.07881 -83.85243 11838 ft 298 kts 222°
2026-05-05 00:19 34.06377 -83.86860 11484 ft 287 kts 222°
2026-05-05 00:20 34.04908 -83.88440 11141 ft 277 kts 222°
2026-05-05 00:20 34.03481 -83.89973 10817 ft 271 kts 222°
2026-05-05 00:20 34.02078 -83.91479 10508 ft 275 kts 222°
2026-05-05 00:20 34.00636 -83.93026 10245 ft 277 kts 222°
2026-05-05 00:21 33.99200 -83.94563 10112 ft 274 kts 222°
2026-05-05 00:21 33.97733 -83.96027 9772 ft 272 kts 211°
2026-05-05 00:21 33.95951 -83.96743 9493 ft 271 kts 187°
2026-05-05 00:21 33.94090 -83.96746 9249 ft 268 kts 179°
2026-05-05 00:22 33.92228 -83.96649 8939 ft 266 kts 179°
2026-05-05 00:22 33.90373 -83.96557 8613 ft 265 kts 180°
2026-05-05 00:22 33.88558 -83.96473 8372 ft 262 kts 180°
2026-05-05 00:22 33.86750 -83.96392 8239 ft 257 kts 180°
2026-05-05 00:23 33.84952 -83.96313 8130 ft 259 kts 180°
2026-05-05 00:23 33.83132 -83.96236 8083 ft 262 kts 180°
2026-05-05 00:23 33.81300 -83.96158 8035 ft 264 kts 180°
2026-05-05 00:23 33.79464 -83.96081 8012 ft 263 kts 179°
2026-05-05 00:24 33.77665 -83.96006 7949 ft 261 kts 180°
2026-05-05 00:24 33.75854 -83.95947 7682 ft 256 kts 184°
2026-05-05 00:24 33.74138 -83.96450 7177 ft 254 kts 204°
2026-05-05 00:24 33.72513 -83.97332 6785 ft 257 kts 203°
2026-05-05 00:25 33.70870 -83.98162 6550 ft 253 kts 203°
2026-05-05 00:25 33.69275 -83.98956 6553 ft 244 kts 202°
2026-05-05 00:25 33.67687 -83.99746 6560 ft 251 kts 202°
2026-05-05 00:25 33.66143 -84.00723 6544 ft 252 kts 221°
2026-05-05 00:26 33.65174 -84.02403 6521 ft 243 kts 248°
2026-05-05 00:26 33.64870 -84.04396 6180 ft 246 kts 267°
2026-05-05 00:26 33.64894 -84.06450 5873 ft 245 kts 268°
2026-05-05 00:26 33.64905 -84.08470 5550 ft 245 kts 268°
2026-05-05 00:27 33.64911 -84.10098 5306 ft 244 kts 268°
2026-05-05 00:27 33.64920 -84.12101 5105 ft 230 kts 267°
2026-05-05 00:27 33.64927 -84.14003 4848 ft 229 kts 267°
2026-05-05 00:27 33.64945 -84.15904 4600 ft 226 kts 268°
2026-05-05 00:28 33.64953 -84.17780 4350 ft 223 kts 267°
2026-05-05 00:28 33.64955 -84.19624 4118 ft 219 kts 267°
2026-05-05 00:28 33.64956 -84.21391 3854 ft 204 kts 267°
2026-05-05 00:28 33.64954 -84.23031 3657 ft 195 kts 266°
2026-05-05 00:29 33.64955 -84.24615 3471 ft 186 kts 266°
2026-05-05 00:29 33.64955 -84.26178 3270 ft 183 kts 266°
2026-05-05 00:29 33.64955 -84.27666 3050 ft 172 kts 265°
2026-05-05 00:29 33.64954 -84.29067 2864 ft 165 kts 265°
2026-05-05 00:30 33.64953 -84.30439 2730 ft 165 kts 266°
2026-05-05 00:30 33.64953 -84.31819 2512 ft 165 kts 265°
2026-05-05 00:30 33.64954 -84.33180 2316 ft 162 kts 265°
2026-05-05 00:30 33.64950 -84.34530 2084 ft 159 kts 266°
2026-05-05 00:31 33.64957 -84.35825 1880 ft 158 kts 265°
2026-05-05 00:31 33.64952 -84.37159 1646 ft 161 kts 266°
2026-05-05 00:31 33.64947 -84.38486 1411 ft 155 kts 268°
2026-05-05 00:31 33.64955 -84.39768 1221 ft 150 kts 268°
2026-05-05 00:32 33.64956 -84.41008 1050 ft 146 kts 268°
2026-05-05 00:32 33.64952 -84.42143 1013 ft 121 kts 270°
2026-05-05 00:32 33.64956 -84.42878 1011 ft 46 kts 271°
2026-05-05 00:32 33.64938 -84.43117 1011 ft 17 kts 255°
2026-05-05 00:33 33.64900 -84.43241 1012 ft 12 kts 245°
2026-05-05 00:33 33.64862 -84.43332 1011 ft 12 kts 246°
2026-05-05 00:33 33.64846 -84.43422 1011 ft 11 kts 264°
2026-05-05 00:33 33.64844 -84.43513 1011 ft 11 kts 270°
2026-05-05 00:34 33.64844 -84.43605 1012 ft 11 kts 270°
2026-05-05 00:34 33.64844 -84.43697 1011 ft 11 kts 270°
2026-05-05 00:34 33.64833 -84.43787 1011 ft 11 kts 241°
2026-05-05 00:34 33.64779 -84.43819 1011 ft 5 kts 181°
2026-05-05 00:35 33.64744 -84.43820 1011 ft 5 kts 180°
2026-05-05 00:35 33.64694 -84.43820 1011 ft 8 kts 180°
2026-05-05 00:35 33.64637 -84.43820 1011 ft 9 kts 180°
2026-05-05 00:35 33.64579 -84.43820 1011 ft 7 kts 180°
2026-05-05 00:36 33.64537 -84.43845 1011 ft 7 kts 229°
2026-05-05 00:36 33.64518 -84.43900 1011 ft 7 kts 255°
2026-05-05 00:36 33.64508 -84.43963 1011 ft 8 kts 259°
2026-05-05 00:36 33.64496 -84.44030 1011 ft 8 kts 252°
2026-05-05 00:37 33.64464 -84.44087 1011 ft 8 kts 221°
2026-05-05 00:37 33.64411 -84.44112 1011 ft 8 kts 190°
2026-05-05 00:37 33.64359 -84.44116 1011 ft 6 kts 182°
2026-05-05 00:37 33.64345 -84.44119 1011 ft 0 kts 196°
2026-05-05 00:38 33.64333 -84.44130 1011 ft 3 kts 226°
2026-05-05 00:38 33.64327 -84.44153 1011 ft 3 kts 261°
2026-05-05 00:38 33.64326 -84.44175 1011 ft 0 kts 266°